EDW75A LSZH-HTZA

Flight info

Callsign EDW75A
Flight time N/A
Altitude 19000
Route GERSA Z50 KELIP Z651 CANNE L995 TEA M736 SOR M620 TISAL/N0509F290 M620 BONAR/N0489F390 M620 KFR B21 ORNAT P568 DEBOX/N0484F410 P568 EPLAS UM304 NAK UA727 NV UL445 GABSO UT913 DUNDO
Aircraft A359/H-SDE2E3GHIJ3J4J5LM1ORWXY/LB1D1

Departure

Time N/A
Airport Zürich Airport (LSZH)

Arrival

Time 2026-04-18 17:26
Airport Abeid Amani Karume International Airport (HTZA)
Time Latitude Longitude Altitude Speed Heading
2026-04-18 17:00 -4.03367 38.28828 40954 ft 486 kts 148°
2026-04-18 17:00 -4.09133 38.32378 40966 ft 486 kts 148°
2026-04-18 17:01 -4.14908 38.35898 40964 ft 486 kts 147°
2026-04-18 17:01 -4.17796 38.37658 40752 ft 485 kts 148°
2026-04-18 17:01 -4.20679 38.39418 40495 ft 486 kts 148°
2026-04-18 17:01 -4.23571 38.41184 40277 ft 487 kts 148°
2026-04-18 17:02 -4.26457 38.42948 39814 ft 484 kts 148°
2026-04-18 17:02 -4.29323 38.44701 39224 ft 483 kts 148°
2026-04-18 17:02 -4.32189 38.46454 38593 ft 483 kts 148°
2026-04-18 17:02 -4.35063 38.48212 37849 ft 483 kts 148°
2026-04-18 17:03 -4.37926 38.49964 37188 ft 482 kts 148°
2026-04-18 17:03 -4.40792 38.51717 36500 ft 482 kts 148°
2026-04-18 17:03 -4.43655 38.53470 35826 ft 482 kts 148°
2026-04-18 17:03 -4.46522 38.55227 35083 ft 485 kts 148°
2026-04-18 17:04 -4.49419 38.57001 34276 ft 489 kts 148°
2026-04-18 17:04 -4.52335 38.58785 33367 ft 492 kts 148°
2026-04-18 17:04 -4.55261 38.60575 32503 ft 495 kts 148°
2026-04-18 17:04 -4.58208 38.62378 31601 ft 497 kts 148°
2026-04-18 17:05 -4.61165 38.64188 30700 ft 500 kts 148°
2026-04-18 17:05 -4.64149 38.66015 29681 ft 504 kts 148°
2026-04-18 17:05 -4.67147 38.67849 28825 ft 503 kts 148°
2026-04-18 17:05 -4.70116 38.69667 28148 ft 498 kts 148°
2026-04-18 17:06 -4.73054 38.71466 27489 ft 493 kts 148°
2026-04-18 17:06 -4.75974 38.73254 26822 ft 489 kts 148°
2026-04-18 17:06 -4.78868 38.75025 26152 ft 486 kts 147°
2026-04-18 17:06 -4.81741 38.76785 25460 ft 482 kts 147°
2026-04-18 17:07 -4.84594 38.78533 24811 ft 479 kts 147°
2026-04-18 17:07 -4.87427 38.80271 24156 ft 476 kts 147°
2026-04-18 17:07 -4.90323 38.81868 23581 ft 473 kts 154°
2026-04-18 17:07 -4.93348 38.83139 22816 ft 470 kts 157°
2026-04-18 17:08 -4.96392 38.84295 22116 ft 466 kts 158°
2026-04-18 17:08 -4.99413 38.85415 21447 ft 461 kts 158°
2026-04-18 17:08 -5.02407 38.86515 20787 ft 456 kts 158°
2026-04-18 17:08 -5.05378 38.87603 20119 ft 452 kts 159°
2026-04-18 17:09 -5.08322 38.88680 19445 ft 448 kts 159°
2026-04-18 17:09 -5.11240 38.89745 18784 ft 444 kts 159°
2026-04-18 17:09 -5.14125 38.90798 18087 ft 441 kts 159°
2026-04-18 17:09 -5.16999 38.91846 17350 ft 437 kts 159°
2026-04-18 17:10 -5.19804 38.92869 16676 ft 432 kts 159°
2026-04-18 17:10 -5.22644 38.93905 15992 ft 427 kts 159°
2026-04-18 17:10 -5.25430 38.94921 15310 ft 422 kts 159°
2026-04-18 17:10 -5.28136 38.95909 14646 ft 417 kts 159°
2026-04-18 17:11 -5.30851 38.96899 13964 ft 413 kts 159°
2026-04-18 17:11 -5.33541 38.97881 13256 ft 409 kts 159°
2026-04-18 17:11 -5.36201 38.98851 12567 ft 403 kts 159°
2026-04-18 17:11 -5.38819 38.99806 11902 ft 397 kts 159°
2026-04-18 17:12 -5.41399 39.00748 11251 ft 392 kts 158°
2026-04-18 17:12 -5.43903 39.01660 11069 ft 369 kts 158°
2026-04-18 17:12 -5.46238 39.02511 10951 ft 347 kts 158°
2026-04-18 17:12 -5.48432 39.03310 10811 ft 323 kts 158°
2026-04-18 17:13 -5.50471 39.04054 10703 ft 301 kts 158°
2026-04-18 17:13 -5.52388 39.04754 10563 ft 287 kts 158°
2026-04-18 17:13 -5.54223 39.05425 10448 ft 275 kts 158°
2026-04-18 17:13 -5.56007 39.06078 10327 ft 272 kts 158°
2026-04-18 17:14 -5.57779 39.06727 10084 ft 271 kts 158°
2026-04-18 17:14 -5.59549 39.07375 9774 ft 274 kts 158°
2026-04-18 17:14 -5.61389 39.08050 9612 ft 287 kts 158°
2026-04-18 17:14 -5.63262 39.08735 9367 ft 285 kts 158°
2026-04-18 17:15 -5.65135 39.09419 8852 ft 287 kts 158°
2026-04-18 17:15 -5.67005 39.10102 8457 ft 284 kts 158°
2026-04-18 17:15 -5.68856 39.10777 8128 ft 282 kts 158°
2026-04-18 17:15 -5.70690 39.11447 7812 ft 280 kts 158°
2026-04-18 17:16 -5.72515 39.12114 7521 ft 275 kts 158°
2026-04-18 17:16 -5.74258 39.12750 7192 ft 259 kts 159°
2026-04-18 17:16 -5.75916 39.13355 6922 ft 252 kts 159°
2026-04-18 17:16 -5.77566 39.13959 6661 ft 250 kts 159°
2026-04-18 17:17 -5.79194 39.14554 6385 ft 248 kts 159°
2026-04-18 17:17 -5.80809 39.15145 6083 ft 246 kts 159°
2026-04-18 17:17 -5.82414 39.15732 5792 ft 245 kts 159°
2026-04-18 17:17 -5.84007 39.16315 5509 ft 244 kts 159°
2026-04-18 17:18 -5.85595 39.16896 5313 ft 242 kts 159°
2026-04-18 17:18 -5.87177 39.17474 5186 ft 242 kts 159°
2026-04-18 17:18 -5.88754 39.18050 5027 ft 241 kts 159°
2026-04-18 17:18 -5.90329 39.18627 4779 ft 240 kts 159°
2026-04-18 17:19 -5.91898 39.19198 4502 ft 240 kts 161°
2026-04-18 17:19 -5.93517 39.19592 4196 ft 239 kts 170°
2026-04-18 17:19 -5.95159 39.19786 3923 ft 237 kts 174°
2026-04-18 17:19 -5.96778 39.19933 3703 ft 230 kts 173°
2026-04-18 17:20 -5.98315 39.20078 3542 ft 220 kts 173°
2026-04-18 17:20 -5.99806 39.20224 3411 ft 209 kts 173°
2026-04-18 17:20 -6.01213 39.20366 3330 ft 197 kts 172°
2026-04-18 17:20 -6.02535 39.20502 3146 ft 188 kts 172°
2026-04-18 17:21 -6.03819 39.20636 2899 ft 182 kts 173°
2026-04-18 17:21 -6.05064 39.20765 2842 ft 178 kts 173°
2026-04-18 17:21 -6.06295 39.20889 2799 ft 177 kts 173°
2026-04-18 17:21 -6.07527 39.21013 2628 ft 178 kts 173°
2026-04-18 17:22 -6.08762 39.21136 2399 ft 178 kts 173°
2026-04-18 17:22 -6.09984 39.21259 2157 ft 175 kts 173°
2026-04-18 17:22 -6.11188 39.21381 1929 ft 174 kts 173°
2026-04-18 17:22 -6.12388 39.21501 1713 ft 173 kts 173°
2026-04-18 17:23 -6.13565 39.21620 1501 ft 163 kts 173°
2026-04-18 17:23 -6.14655 39.21729 1284 ft 152 kts 173°
2026-04-18 17:23 -6.15661 39.21830 1085 ft 137 kts 173°
2026-04-18 17:23 -6.16569 39.21932 898 ft 128 kts 171°
2026-04-18 17:24 -6.17464 39.22026 817 ft 132 kts 171°
2026-04-18 17:24 -6.18383 39.22116 653 ft 134 kts 172°
2026-04-18 17:24 -6.19301 39.22213 455 ft 131 kts 173°
2026-04-18 17:24 -6.20208 39.22297 272 ft 130 kts 174°
2026-04-18 17:25 -6.21129 39.22380 122 ft 135 kts 174°
2026-04-18 17:25 -6.22031 39.22470 62 ft 122 kts 174°
2026-04-18 17:25 -6.22756 39.22543 58 ft 91 kts 174°
2026-04-18 17:25 -6.23290 39.22597 67 ft 63 kts 175°
2026-04-18 17:26 -6.23637 39.22635 64 ft 35 kts 174°
2026-04-18 17:26 -6.23773 39.22646 60 ft 15 kts 186°
2026-04-18 17:26 -6.23811 39.22572 58 ft 13 kts 266°
2026-04-18 17:26 -6.23794 39.22490 57 ft 12 kts 314°
2026-04-18 17:27 -6.23715 39.22469 61 ft 13 kts 355°
2026-04-18 17:27 -6.23615 39.22461 58 ft 16 kts 355°
2026-04-18 17:27 -6.23363 39.22435 59 ft 14 kts 354°
2026-04-18 17:28 -6.23255 39.22424 60 ft 17 kts 355°
2026-04-18 17:28 -6.23124 39.22412 59 ft 21 kts 354°
2026-04-18 17:28 -6.22971 39.22396 62 ft 23 kts 353°
2026-04-18 17:28 -6.22806 39.22381 61 ft 25 kts 355°
2026-04-18 17:29 -6.22647 39.22367 54 ft 23 kts 353°
2026-04-18 17:29 -6.22539 39.22354 59 ft 14 kts 353°
2026-04-18 17:29 -6.22443 39.22333 54 ft 14 kts 326°
2026-04-18 17:29 -6.22426 39.22312 56 ft 0 kts 297°
2026-04-18 17:30 -6.22423 39.22302 56 ft 5 kts 286°
2026-04-18 17:30 -6.22418 39.22253 59 ft 0 kts 294°
2026-04-18 17:30 -6.22405 39.22247 59 ft 6 kts 335°
2026-04-18 17:30 -6.22359 39.22239 59 ft 8 kts 351°
2026-04-18 17:31 -6.22341 39.22237 64 ft 1 kts 353°
2026-04-18 17:31 -6.22334 39.22237 58 ft 0 kts 354°